Temp
18 17 17 16 17 18 17 17 18 18 17 17 15 13 14 15 13 13 14 14 15 15 15 15 15 14 14 14 14 14 13 13 13 13 13 12 12 12 12 11 11 11 10 10
16 16 18 18 17 18 18 18 17 17 17 16 15 14 14 13 12 14 15 14 15 14 14 15 15 14 14 14 14 14 13 13 13 13 12 12 12 12 11 11 11 10 10 9
16 19 17 18 18 18 18 17 17 17 16 15 14 14 15 14 13 14 14 14 14 15 15 14 15 15 14 14 14 14 13 13 13 12 12 12 11 11 11 11 10 9 9 8
18 18 19 18 18 17 18 16 17 17 15 14 14 13 14 13 12 12 13 12 13 15 15 15 15 15 15 15 14 13 13 13 13 12 11 11 11 11 11 10 10 9 9 8
17 17 18 18 17 17 17 15 15 15 13 13 13 12 13 12 14 12 12 12 13 14 15 15 15 16 15 14 14 13 13 13 12 12 11 11 10 10 10 9 9 8 8 8
15 17 16 16 14 15 14 14 11 10 10 12 13 12 13 13 13 11 13 13 14 14 15 15 15 15 14 14 14 13 13 12 12 11 11 10 10 10 9 9 8 8 8 8
15 15 16 16 15 15 14 13 12 13 12 12 12 12 13 13 13 12 10 13 15 15 15 15 15 15 15 14 14 13 13 12 11 11 10 10 9 9 8 8 8 8 7 7
13 15 15 14 15 14 14 13 11 15 13 12 11 12 14 13 13 12 12 14 15 15 15 15 15 14 14 14 13 13 12 12 11 11 10 9 9 8 8 7 7 6 6 5
13 15 14 14 14 14 13 12 12 10 9 10 11 12 14 11 11 12 13 14 14 14 14 14 14 14 14 13 13 12 12 11 11 10 9 8 8 8 7 7 6 5 5 4
13 14 13 14 14 13 14 11 12 9 13 13 11 11 12 12 12 11 10 11 13 13 13 13 13 13 13 12 12 12 12 11 9 8 8 8 8 7 6 5 5 4 4 3
12 12 13 13 13 11 11 11 8 8 8 11 11 11 9 12 11 9 9 11 12 12 12 12 12 12 12 12 12 12 10 9 8 7 7 7 7 6 5 4 4 3 3 2
10 9 11 13 11 12 12 12 9 9 11 6 4 8 11 10 10 10 10 11 11 11 11 12 12 11 11 11 10 9 8 8 7 7 7 6 6 5 4 4 3 3 3 2
10 9 10 12 11 11 12 11 8 6 5 6 7 10 10 9 9 9 10 10 11 11 11 11 11 11 11 10 9 9 8 7 7 6 6 6 5 4 4 3 3 2 2 2
10 7 10 10 13 11 12 12 9 8 4 7 7 10 11 8 8 9 10 10 10 10 10 10 10 9 9 9 9 8 7 6 6 6 5 4 4 3 2 2 2 2 1 0
8 10 9 10 9 10 11 11 9 9 9 9 10 8 10 9 8 9 9 10 10 10 9 8 8 8 7 8 7 7 6 6 5 4 4 3 2 2 2 2 1 1 -0 -2
6 9 9 11 8 8 9 9 9 9 9 7 8 8 8 8 9 9 9 9 9 9 8 7 7 7 7 7 6 5 5 4 4 3 2 2 2 1 1 1 1 -0 -1 -2
7 6 6 9 6 7 9 9 9 9 8 9 9 8 8 8 8 9 9 9 8 8 7 7 7 7 6 6 5 4 4 3 3 2 2 1 1 1 0 -0 -0 -1 -2 -2
6 5 4 4 7 8 10 8 9 9 9 8 7 7 8 8 8 9 8 7 7 6 6 6 6 6 6 5 4 3 3 2 2 1 1 1 1 0 -1 -1 -1 -2 -3 -2
5 4 3 3 2 7 10 8 9 10 10 7 7 7 8 8 7 8 7 7 6 6 6 5 5 5 4 4 3 3 2 1 1 1 1 0 -0 -1 -1 -1 -3 -3 -3 -2
4 2 4 3 3 6 9 9 10 9 6 7 8 7 7 6 3 3 6 6 6 5 5 5 5 4 3 3 2 2 1 1 0 0 -0 -0 -1 -2 -2 -4 -3 -3 -3 -2
3 1 2 1 1 4 6 8 9 8 7 7 8 7 6 4 6 6 5 5 5 4 4 4 4 3 3 2 1 1 1 0 -0 -1 -1 -1 -2 -3 -4 -4 -4 -3 -2 -2
5 2 1 0 1 6 7 7 8 6 7 7 6 6 6 5 5 5 5 4 4 4 4 3 3 3 2 1 1 0 -0 -1 -1 -1 -1 -1 -2 -4 -4 -3 -4 -3 -3 -3
5 6 3 3 4 7 8 7 7 8 7 6 6 5 5 5 5 5 4 4 3 3 3 3 2 2 2 1 0 -0 -1 -2 -1 -1 -2 -2 -2 -4 -4 -4 -3 -3 -3 -3
6 5 3 4 6 5 7 7 7 7 7 6 5 5 5 5 4 4 4 3 3 3 3 2 2 1 1 0 -0 -1 -2 -2 -2 -2 -2 -2 -4 -4 -4 -4 -4 -3 -3 -3
5 5 4 3 5 6 6 6 6 6 6 5 5 5 5 4 4 4 4 4 3 2 2 1 1 1 1 -0 -1 -2 -2 -2 -2 -3 -3 -5 -4 -4 -4 -4 -4 -3 -3 -3
5 4 4 4 7 6 7 6 6 6 5 5 5 5 4 4 4 4 4 3 3 2 2 1 1 0 0 -1 -1 -2 -2 -2 -3 -4 -4 -5 -4 -5 -4 -4 -3 -4 -3 -3
Height
1511 1518 1523 1518 1520 1521 1527 1531 1531 1527 1525 1528 1529 1527 1518 1519 1520 1521 1521 1523 1525 1529 1534 1536 1539 1542 1544 1545 1547 1548 1549 1550 1550 1551 1551 1550 1549 1548 1547 1546 1544 1542 1540 1538
1517 1522 1513 1514 1519 1521 1523 1528 1532 1527 1525 1528 1527 1524 1514 1513 1513 1513 1514 1517 1521 1526 1530 1533 1536 1538 1541 1544 1545 1546 1547 1548 1549 1549 1549 1548 1547 1545 1544 1543 1541 1539 1537 1534
1518 1514 1513 1514 1519 1522 1525 1529 1530 1531 1528 1528 1530 1525 1514 1511 1511 1511 1511 1513 1517 1521 1525 1530 1533 1536 1539 1541 1543 1545 1546 1546 1547 1547 1546 1545 1544 1543 1542 1540 1538 1535 1532 1530
1513 1512 1513 1516 1520 1523 1529 1525 1526 1529 1535 1545 1533 1548 1521 1517 1514 1510 1509 1509 1512 1517 1523 1527 1531 1533 1535 1538 1541 1543 1544 1544 1545 1544 1544 1543 1541 1540 1538 1535 1534 1531 1528 1525
1517 1515 1516 1520 1521 1520 1527 1527 1530 1533 1541 1542 1541 1550 1525 1519 1515 1512 1509 1509 1511 1515 1520 1524 1528 1530 1534 1537 1539 1541 1541 1542 1542 1542 1541 1539 1537 1535 1533 1531 1529 1526 1524 1521
1517 1515 1517 1520 1523 1523 1527 1530 1539 1545 1549 1556 1543 1546 1534 1528 1523 1517 1511 1510 1511 1514 1519 1523 1527 1529 1533 1535 1537 1538 1539 1540 1540 1539 1537 1535 1533 1531 1528 1526 1523 1520 1517 1514
1521 1521 1520 1520 1525 1526 1529 1538 1555 1554 1556 1555 1542 1546 1531 1524 1520 1519 1514 1510 1512 1515 1519 1522 1525 1527 1530 1533 1535 1536 1536 1537 1536 1535 1533 1531 1529 1526 1523 1520 1517 1513 1508 1505
1532 1535 1524 1523 1524 1529 1532 1537 1556 1548 1556 1553 1544 1545 1529 1523 1521 1517 1513 1511 1514 1517 1520 1523 1525 1526 1528 1530 1531 1532 1533 1533 1532 1530 1528 1527 1524 1521 1518 1515 1511 1506 1500 1496
1532 1529 1525 1524 1524 1527 1535 1542 1540 1555 1562 1561 1548 1535 1524 1523 1521 1518 1516 1516 1518 1520 1521 1522 1523 1524 1526 1527 1529 1529 1530 1529 1528 1526 1524 1522 1520 1517 1512 1508 1503 1498 1494 1489
1526 1531 1528 1527 1526 1530 1530 1536 1547 1556 1551 1552 1551 1544 1539 1529 1526 1523 1521 1521 1521 1522 1522 1523 1523 1524 1525 1526 1527 1527 1526 1525 1523 1522 1521 1518 1515 1510 1506 1500 1495 1491 1486 1481
1524 1530 1532 1529 1531 1535 1538 1540 1548 1552 1559 1557 1559 1546 1532 1529 1527 1527 1525 1524 1524 1523 1523 1524 1524 1524 1525 1525 1525 1523 1522 1521 1520 1518 1516 1512 1508 1503 1497 1492 1488 1483 1477 1472
1527 1534 1538 1531 1530 1530 1531 1534 1540 1553 1552 1567 1576 1553 1528 1528 1528 1527 1527 1527 1526 1526 1526 1525 1525 1524 1524 1523 1521 1520 1518 1517 1515 1513 1509 1505 1500 1495 1491 1485 1480 1475 1468 1463
1527 1537 1544 1536 1535 1532 1532 1533 1540 1547 1555 1560 1564 1545 1528 1528 1528 1528 1528 1528 1527 1527 1526 1525 1525 1524 1522 1520 1518 1516 1515 1513 1510 1506 1502 1498 1494 1489 1484 1478 1472 1466 1459 1453
1526 1537 1536 1545 1532 1533 1532 1531 1536 1540 1565 1550 1548 1534 1528 1530 1529 1529 1529 1528 1528 1527 1526 1525 1524 1522 1520 1518 1515 1513 1511 1508 1505 1501 1497 1492 1487 1482 1475 1469 1463 1457 1450 1443
1528 1533 1536 1534 1534 1533 1532 1530 1534 1537 1536 1540 1532 1536 1530 1530 1530 1529 1529 1528 1527 1526 1525 1523 1521 1519 1517 1514 1511 1508 1506 1503 1499 1495 1491 1485 1480 1474 1468 1462 1456 1449 1442 1436
1532 1537 1536 1533 1535 1537 1535 1531 1531 1532 1532 1536 1533 1533 1527 1528 1529 1528 1528 1527 1526 1524 1523 1521 1518 1515 1511 1508 1506 1504 1501 1498 1494 1489 1484 1479 1473 1467 1461 1454 1447 1440 1434 1429
1534 1539 1544 1539 1542 1538 1536 1527 1527 1525 1526 1526 1529 1526 1527 1528 1528 1527 1526 1525 1523 1522 1519 1516 1513 1509 1506 1503 1501 1499 1496 1492 1488 1483 1478 1472 1466 1459 1453 1446 1440 1433 1428 1422
1535 1540 1547 1556 1542 1547 1524 1523 1523 1523 1522 1524 1525 1526 1526 1526 1525 1524 1523 1523 1522 1519 1515 1511 1508 1504 1501 1499 1498 1495 1491 1487 1482 1477 1471 1466 1459 1452 1446 1439 1433 1427 1422 1417
1532 1539 1555 1561 1566 1540 1520 1522 1523 1522 1522 1522 1523 1524 1524 1524 1523 1522 1522 1521 1518 1514 1510 1506 1503 1500 1498 1496 1494 1491 1487 1482 1477 1471 1465 1460 1453 1446 1439 1433 1428 1423 1416 1411
1535 1538 1546 1560 1566 1555 1522 1520 1519 1520 1532 1518 1519 1521 1523 1523 1528 1523 1520 1516 1513 1509 1505 1501 1498 1496 1494 1492 1489 1485 1480 1476 1471 1466 1461 1455 1448 1440 1433 1428 1423 1418 1412 1405
1545 1551 1554 1562 1567 1541 1519 1518 1519 1528 1526 1516 1518 1521 1522 1523 1522 1518 1516 1512 1509 1505 1501 1497 1495 1494 1491 1488 1485 1481 1476 1471 1467 1462 1456 1450 1443 1435 1429 1423 1419 1412 1406 1400
1534 1550 1554 1559 1561 1540 1513 1519 1522 1515 1514 1517 1519 1520 1520 1519 1517 1514 1511 1508 1505 1501 1497 1495 1493 1491 1489 1485 1480 1476 1472 1467 1463 1458 1451 1445 1438 1431 1425 1420 1413 1407 1401 1395
1533 1522 1532 1534 1527 1510 1510 1509 1510 1511 1513 1516 1517 1517 1517 1515 1513 1511 1507 1505 1501 1498 1494 1492 1490 1488 1485 1481 1477 1471 1467 1463 1459 1453 1446 1440 1433 1426 1422 1416 1408 1402 1397 1391
1517 1515 1521 1519 1507 1508 1509 1511 1512 1513 1513 1514 1515 1515 1514 1512 1510 1507 1505 1501 1498 1495 1492 1490 1488 1485 1482 1477 1473 1469 1464 1460 1455 1448 1442 1434 1428 1423 1417 1411 1405 1399 1393 1387
1513 1513 1514 1514 1507 1508 1508 1508 1510 1512 1513 1513 1513 1513 1511 1509 1507 1505 1501 1498 1494 1492 1490 1487 1484 1481 1478 1473 1469 1465 1461 1456 1451 1444 1438 1431 1425 1419 1413 1408 1402 1396 1392 1386
1505 1505 1512 1510 1501 1502 1503 1505 1509 1511 1512 1513 1513 1513 1511 1508 1506 1502 1499 1495 1491 1489 1486 1484 1481 1477 1474 1470 1466 1462 1458 1453 1447 1440 1434 1429 1422 1416 1410 1404 1397 1394 1389 1384
Wind_Speed
3 4 6 10 3 3 5 3 3 2 2 3 6 9 12 14 20 23 25 29 28 27 22 21 19 16 15 13 11 9 6 4 3 4 7 8 10 13 15 19 22 23 24 26
5 5 3 4 5 3 3 3 3 3 1 3 4 11 11 5 10 25 31 32 33 27 26 25 22 20 17 12 11 10 9 7 6 7 9 11 13 16 18 20 24 25 27 29
5 1 6 4 4 4 2 3 2 4 4 1 6 7 5 2 2 5 17 27 31 32 30 27 24 21 18 16 14 11 10 10 9 10 12 12 15 17 18 21 24 25 28 31
2 2 3 3 3 4 1 1 2 2 3 3 4 5 6 4 8 4 7 15 24 29 29 27 25 23 20 17 14 13 13 13 12 13 14 14 17 19 21 23 25 27 30 34
2 2 2 3 1 1 2 4 3 3 3 3 3 2 7 5 6 8 10 7 15 24 28 28 27 23 21 19 17 15 16 16 14 15 15 17 19 20 23 24 26 29 32 37
2 2 3 2 3 4 6 4 6 4 3 1 2 3 5 4 5 7 9 7 8 16 23 26 25 25 24 21 20 19 19 17 15 17 18 19 20 22 24 26 29 32 38 39
4 2 2 2 4 3 5 5 3 4 3 5 1 2 6 5 4 5 12 11 6 8 12 19 23 25 24 23 21 20 20 16 17 19 20 21 21 23 25 28 33 38 40 40
4 3 2 4 2 5 2 5 5 4 2 4 1 5 2 3 8 9 8 5 4 4 5 9 14 20 21 21 21 19 17 18 20 22 22 21 21 24 28 33 37 38 40 40
4 1 1 4 2 2 2 2 2 5 3 1 3 5 4 7 7 13 18 15 8 3 3 6 8 10 11 13 13 14 17 20 22 22 20 20 23 29 34 36 37 39 40 41
3 2 2 1 3 5 2 5 3 3 2 3 4 4 3 5 5 7 13 17 14 10 8 8 7 6 8 9 11 15 18 21 19 18 19 24 30 34 35 37 39 39 40 40
3 3 2 1 2 6 2 0 5 4 3 4 2 5 5 2 4 6 11 15 18 19 16 14 11 8 6 8 11 15 16 16 16 19 24 30 32 34 36 38 39 39 41 42
1 4 3 3 1 1 2 4 5 4 4 1 4 5 1 3 5 6 9 12 13 14 14 14 14 14 13 11 12 13 14 16 19 24 29 32 35 36 38 39 39 41 43 43
3 1 2 5 4 2 2 3 4 5 3 5 4 5 1 3 8 9 9 10 10 11 13 15 16 17 16 16 17 17 18 20 24 29 33 35 35 37 38 40 42 42 43 44
2 2 4 5 2 1 1 3 4 4 3 4 6 4 2 6 4 6 7 8 9 12 15 16 16 16 17 18 19 20 20 23 27 32 33 34 34 36 39 40 41 42 43 42
3 2 2 3 3 1 3 4 5 6 4 5 4 7 1 2 4 3 5 7 9 13 15 17 20 21 20 21 21 21 22 25 29 31 31 33 35 38 39 40 41 42 39 35
4 1 2 2 3 3 4 7 6 4 3 7 4 6 4 4 1 4 6 6 7 9 14 21 21 21 21 22 21 20 22 26 29 30 32 34 36 38 38 40 41 40 36 35
2 3 2 4 4 6 6 4 5 4 4 4 4 4 5 2 3 8 10 8 12 15 20 27 24 23 22 20 18 20 24 27 28 30 32 34 36 38 39 40 40 38 35 34
4 4 2 2 3 1 4 2 1 4 3 2 3 3 2 2 5 13 8 7 14 21 25 25 25 25 19 16 17 22 25 27 29 31 32 34 36 39 40 41 37 36 31 32
4 4 3 3 2 6 2 1 4 3 3 6 5 3 2 4 9 6 1 16 22 25 26 25 24 19 14 16 21 24 26 28 30 32 33 35 36 39 40 36 33 32 33 34
5 6 4 2 4 4 5 2 4 4 4 8 7 3 2 5 4 4 16 22 24 25 25 24 19 15 15 19 23 25 27 29 30 32 33 35 36 38 37 31 33 36 32 32
2 3 5 3 3 8 6 5 4 3 6 10 5 0 3 2 7 17 19 22 23 22 24 18 15 14 18 23 25 26 28 29 30 31 34 35 36 36 30 33 34 34 30 31
6 6 4 3 2 7 8 4 6 4 9 7 2 1 5 9 13 16 20 23 23 23 20 14 14 16 20 22 25 27 28 28 29 32 34 35 35 32 30 32 34 29 29 29
2 6 4 8 6 3 12 4 5 7 8 4 1 2 6 10 13 17 20 22 20 19 15 14 17 21 20 22 24 27 27 27 30 33 34 35 33 29 28 28 30 30 29 28
4 5 3 2 1 6 8 8 7 6 4 3 0 3 6 10 13 17 19 20 19 16 15 16 19 19 21 22 23 24 25 26 31 33 33 34 30 29 30 30 30 29 28 27
4 8 5 5 3 4 8 9 9 6 4 2 1 4 7 10 14 17 20 21 18 16 16 18 18 20 22 23 23 22 22 27 31 32 34 31 28 30 31 30 29 26 24 23
8 6 5 5 5 4 6 16 10 6 3 1 4 7 9 13 16 19 21 21 19 17 17 17 18 19 22 23 22 21 22 27 30 31 30 29 30 29 31 31 32 25 22 21
Wind_Direction
75 91 195 208 198 116 139 169 221 238 213 173 239 267 271 229 218 222 218 211 205 202 193 200 207 211 213 215 219 214 219 245 288 330 336 324 327 338 341 345 348 347 345 342
49 222 236 128 161 157 150 169 256 282 105 170 320 277 267 201 227 226 224 219 213 203 197 201 207 214 224 239 238 234 238 259 285 303 318 325 332 334 336 338 342 341 339 339
148 232 138 135 136 132 142 176 211 238 337 73 330 292 321 33 334 283 248 240 222 211 203 203 209 218 223 232 240 246 250 261 281 298 309 318 326 326 327 331 334 334 335 335
123 355 123 92 109 118 240 297 118 71 50 263 18 286 304 337 324 315 288 233 226 216 210 212 215 220 228 233 239 246 251 263 276 285 297 306 316 318 321 324 327 328 329 328
218 99 99 94 110 123 171 66 62 64 87 15 336 94 272 345 348 343 342 248 222 217 215 215 220 230 234 233 239 248 253 260 269 278 288 298 306 309 313 315 318 321 322 322
59 44 57 96 62 66 143 76 46 52 76 354 301 144 294 336 303 309 334 316 228 212 217 223 227 233 234 237 242 247 254 260 260 274 282 291 297 302 306 310 313 317 318 319
16 17 5 79 91 43 72 61 335 346 10 225 314 102 252 306 321 299 307 318 219 215 224 228 234 240 244 245 249 253 255 255 263 272 282 287 291 297 304 312 315 315 315 316
145 315 21 354 88 169 94 145 156 244 227 276 90 237 252 307 345 4 20 50 166 220 244 251 252 250 254 250 255 258 252 257 267 274 279 282 291 302 310 312 312 313 314 314
130 277 6 48 34 77 160 158 169 104 25 36 275 297 328 3 5 29 47 58 48 4 291 284 283 266 259 260 256 252 258 265 270 275 277 288 301 307 311 312 312 314 314 312
173 101 9 2 98 42 116 153 71 14 215 267 296 285 235 350 339 11 24 31 34 33 25 8 345 313 288 269 266 271 269 270 272 277 292 303 309 312 312 313 316 315 313 312
116 96 286 45 185 178 73 53 54 114 127 177 281 273 217 265 353 9 37 48 50 55 57 52 45 29 356 320 297 282 275 275 283 299 308 313 315 316 317 316 316 314 313 314
10 133 195 193 84 199 177 184 146 125 219 91 144 273 279 25 5 31 55 63 66 61 43 26 14 359 342 320 298 290 288 295 304 311 317 321 321 318 316 315 315 315 315 314
186 22 36 354 12 6 217 173 107 105 93 195 136 263 200 74 52 65 78 68 51 34 22 10 357 347 333 319 309 300 299 305 313 319 322 320 317 315 314 315 317 318 317 315
97 112 155 186 195 161 249 172 144 119 116 185 224 274 273 356 92 79 56 46 40 22 2 352 344 336 323 310 302 298 303 310 317 319 317 316 316 316 317 318 319 319 318 317
88 145 178 247 257 289 253 234 174 194 194 180 238 213 92 161 149 60 19 21 2 352 347 340 332 327 314 303 293 294 302 312 315 316 317 318 319 319 319 320 321 321 321 321
8 107 31 320 20 5 278 251 226 227 216 259 270 278 192 147 157 351 356 340 314 314 329 328 323 317 312 300 291 296 307 315 317 319 319 320 320 320 321 322 324 323 322 323
92 119 72 272 349 326 304 249 192 192 180 172 200 234 155 155 1 337 325 315 308 307 315 320 320 315 306 297 291 303 313 317 318 320 321 323 323 322 324 325 323 322 322 327
125 98 80 245 5 16 249 329 307 224 220 185 81 123 142 236 295 306 315 328 323 318 317 317 315 311 301 292 300 312 317 318 320 322 323 325 325 326 326 325 322 325 331 325
43 115 82 110 194 289 295 197 183 170 296 185 164 164 206 310 317 318 336 326 320 317 316 314 314 309 299 303 313 316 318 320 323 325 327 329 328 326 325 323 327 332 327 324
62 67 106 97 119 221 241 164 142 106 283 184 168 178 308 338 351 258 319 320 317 316 318 315 312 305 305 312 316 319 322 325 326 327 329 329 329 328 324 331 334 330 324 323
53 25 148 155 215 284 233 183 136 105 243 161 161 149 334 248 264 310 317 319 323 322 321 313 306 307 314 318 319 321 323 325 326 327 328 329 331 329 332 331 326 328 327 325
175 145 186 92 84 283 183 127 177 182 122 142 124 346 303 303 312 316 320 328 331 328 326 315 309 312 318 320 320 322 325 325 326 328 327 329 330 332 334 330 328 331 331 328
241 187 180 179 215 218 193 236 168 154 148 153 200 317 324 325 327 325 326 332 332 332 326 313 311 317 321 321 322 322 325 326 328 328 328 329 328 338 333 329 334 335 331 330
241 178 197 94 339 226 208 157 156 147 138 137 107 340 338 334 333 330 330 332 327 327 322 313 313 316 321 324 325 323 324 326 328 327 329 333 335 330 332 339 338 335 333 333
203 148 183 268 261 133 187 192 181 164 150 145 10 356 344 335 335 332 334 330 323 318 321 316 316 319 323 325 325 325 325 327 328 329 331 336 328 333 339 339 336 335 337 336
192 190 165 232 216 184 205 193 175 168 156 61 1 343 343 341 337 335 334 332 322 314 315 315 316 318 325 326 326 325 327 328 331 330 337 334 328 336 340 336 338 344 344 342